User: anonymous   Login
Location: Strawberry
(45.6646°N, 111.9596°W)
Time: 11:00:45
(UTC+00:00)
Language:

BUGSAT 1 - Orbit

View from above orbital plane
View from above orbital plane
View from above satellite
View from above satellite

Ground track
Ground track

The orbit data is extracted from the following two-line orbital elements,

1 40014U 14033E   22337.97446187  .00002643  00000-0  23047-3 0  9997
2 40014  98.1448 343.4266 0029902 193.0096 167.0368 14.97477463461502
Epoch (UTC): 03 December 2022 23:23:13
Eccentricity: 0.0029902
inclination: 98.1448°
perigee height: 554 km
apogee height: 595 km
right ascension of ascending node: 343.4266°
argument of perigee: 193.0096°
revolutions per day: 14.97477463
mean anomaly at epoch: 167.0368°
orbit number at epoch: 46150

The dashed part of the orbit path shows where the satellite is in the earth's shadow,  

DLR